[[{"header":{"parameterUnit":"m.s-1","parameterCategory":1,"la1":30.2991,"la2":30.254,"lo1":-89.0895,"lo2":-89.0444,"dy":0.0017,"dx":0.0017,"nx":28,"ny":28,"refTime":"2023-10-05T03:00:00:Z","depth":0,"parameterNumber":2,"parameterNumberName":"U-component_of_WINDS"},"data":[0,0,0,0,0,0,0,0,0,0,0,0,0,0,0,0,0,0,0,0,0,0,0,0,0,0,0,0,0,0,0,0,0,0,0,0,0,0,0,0,0,0,0,0,0,0,0,0,0,0,0,0,0,0,0,0,0,0,-4.1489,-4.1487,0,-4.1353,-4.1352,-4.135,-4.1241,-4.124,-4.1239,-4.1238,-4.1094,-4.1092,-4.1089,0,0,0,0,0,0,0,0,0,0,0,0,0,-4.165,-4.1647,-4.1489,-4.1487,-4.1486,-4.1354,-4.1352,-4.135,-4.1241,-4.124,-4.1238,-4.1237,-4.1095,-4.1092,-4.1088,0,0,0,0,0,0,0,0,0,0,0,0,0,-4.1554,-4.1647,-4.1489,-4.1416,-4.1408,-4.1354,-4.1352,-4.1349,-4.1241,-4.124,-4.1238,-4.1237,-4.1096,-4.1092,-4.1088,-4.1095,0,0,-4.1075,-4.1073,0,0,0,0,0,0,0,0,-4.1559,-4.1548,-4.1428,-4.1421,-4.1412,-4.1312,-4.1356,-4.1264,-4.1242,-4.1304,-4.1238,-4.1236,-4.1168,-4.1158,-4.1136,-4.1088,-4.1082,-4.1075,-4.1072,-4.107,-4.1069,0,0,0,0,0,0,0,-4.1566,-4.1553,-4.1435,-4.1426,-4.1416,-4.1388,-4.1373,-4.1338,-4.1247,-4.1299,-4.1291,-4.1276,-4.1163,-4.114,-4.1132,-4.108,-4.1075,-4.1071,-4.1069,-4.1067,-4.1031,-4.1033,0,0,0,0,0,0,-4.1585,-4.1559,-4.1439,-4.1431,-4.1483,-4.1387,-4.1369,-4.1346,-4.1247,-4.123,-4.1278,-4.1272,-4.1148,-4.1137,-4.1126,-4.1126,-4.1071,-4.1067,-4.1064,-4.103,-4.1032,-4.1033,0,0,0,0,0,0,-4.1589,-4.1575,-4.1445,-4.1493,-4.1474,-4.1386,-4.136,-4.1344,-4.1321,-4.1231,-4.1214,-4.1271,-4.1146,-4.1132,-4.1104,-4.112,-4.1065,-4.1061,-4.1028,-4.103,-4.1032,-4.1128,0,0,0,0,0,0,-4.1594,-4.1577,-4.158,-4.1494,-4.1472,-4.1426,-4.1361,-4.1343,-4.1315,-4.1305,-4.122,-4.1205,-4.1144,-4.1111,-4.11,-4.1113,-4.1058,-4.1026,-4.1029,-4.1032,-4.1123,-4.1134,-4.1143,0,0,0,0,0,-4.16,-4.1611,-4.158,-4.1566,-4.1474,-4.1427,-4.1415,-4.1346,-4.1316,-4.1317,-4.126,-4.1207,-4.1121,-4.1109,-4.1095,-4.1108,-4.1024,-4.1028,-4.1032,-4.1119,-4.1132,-4.1142,0,0,0,0,0,0,-4.1698,-4.1598,-4.1563,-4.1547,-4.1497,-4.1409,-4.1408,-4.1361,-4.1317,-4.131,-4.1225,-4.1207,-4.1187,-4.1145,-4.1133,-4.1109,-4.1066,-4.1067,-4.1137,-4.1148,-4.1158,-4.1166,-4.1054,0,0,0,0,0,-4.1719,-4.1691,-4.1605,-4.1599,-4.1576,-4.1497,-4.1474,-4.1426,-4.1369,-4.1347,-4.1287,-4.1233,-4.1194,-4.1169,-4.1128,-4.1118,-4.1097,-4.112,-4.113,-4.1139,-4.1139,-4.1129,-4.1138,-4.1045,-4.1045,-4.1045,0,0,-4.1759,-4.1701,-4.1688,-4.1617,-4.1572,-4.1544,-4.1479,-4.1452,-4.1429,-4.1342,-4.1311,-4.1267,-4.1201,-4.1182,-4.117,-4.1146,-4.1161,-4.1143,-4.115,-4.1146,-4.1134,-4.1143,-4.1151,-4.1047,-4.1047,-4.1046,0,0,-4.1818,-4.1773,-4.1762,-4.172,-4.1654,-4.1602,-4.16,-4.152,-4.1487,-4.1456,-4.1389,-4.1362,-4.1296,-4.1251,-4.122,-4.1266,-4.1215,-4.1255,-4.1304,-4.1296,-4.1303,-4.1309,-4.1323,-4.1329,-4.1257,-4.1257,-4.1257,0,-4.1876,-4.1832,-4.1762,-4.1739,-4.1709,-4.1632,-4.162,-4.1582,-4.1505,-4.1486,-4.1461,-4.1377,-4.1328,-4.1296,-4.1308,-4.1286,-4.1279,-4.1262,-4.1308,-4.1313,-4.1318,-4.133,-4.1336,-4.1262,-4.1262,-4.1261,-4.1261,0,-4.1905,-4.1876,-4.1876,-4.1806,-4.1776,-4.1759,-4.1686,-4.1664,-4.162,-4.157,-4.1539,-4.1478,-4.1423,-4.1413,-4.1368,-4.1375,-4.1362,-4.1324,-4.1278,-4.1333,-4.1343,-4.1347,-4.127,-4.1268,-4.1266,-4.1265,0,0,-4.2017,-4.1912,-4.1913,-4.188,-4.1803,-4.1778,-4.1758,-4.1706,-4.1688,-4.164,-4.1618,-4.1566,-4.1531,-4.1496,-4.1446,-4.144,-4.1478,-4.1402,-4.1399,-4.1416,-4.1479,-4.1506,-4.1513,-4.1446,-4.1446,-4.1447,-4.1484,0,-4.2061,-4.2021,-4.1959,-4.1938,-4.191,-4.1838,-4.182,-4.177,-4.1725,-4.1693,-4.1641,-4.1605,-4.1562,-4.154,-4.1531,-4.1475,-4.1489,-4.1472,-4.1423,-4.1422,-4.1437,-4.1518,-4.1546,-4.1583,-4.1488,-4.1488,-4.1489,0,-4.2106,-4.2063,-4.204,-4.1966,-4.1952,-4.1937,-4.1884,-4.1856,-4.1798,-4.1765,-4.1728,-4.1675,-4.1648,-4.1611,-4.1572,-4.1562,-4.1539,-4.1509,-4.1509,-4.1498,-4.1456,-4.1506,-4.1594,-4.1598,-4.1495,-4.1494,-4.1494,0,-4.2187,-4.2123,-4.2101,-4.2076,-4.199,-4.1981,-4.1945,-4.1886,-4.1859,-4.1813,-4.1794,-4.1747,-4.1719,-4.1683,-4.1618,-4.1596,-4.1586,-4.1542,-4.1555,-4.1557,-4.1552,-4.1553,-4.1634,-4.1544,-4.1544,-4.1544,-4.1544,0,-4.224,-4.2228,-4.2136,-4.2122,-4.2107,-4.2037,-4.2023,-4.198,-4.1929,-4.1904,-4.184,-4.1818,-4.1735,-4.1703,-4.1653,-4.1627,-4.1616,-4.1587,-4.1573,-4.1591,-4.1594,-4.1571,-4.1566,-4.1546,-4.1545,-4.1545,-4.1545,0,-4.2325,-4.2264,-4.2234,-4.2157,-4.2138,-4.2129,-4.2062,-4.2045,-4.1998,-4.1967,-4.1956,-4.188,-4.1839,-4.1773,-4.1712,-4.1678,-4.1661,-4.164,-4.168,-4.1671,-4.1687,-4.1685,-4.1753,-4.1757,-4.1669,-4.167,-4.1671,0,-4.2361,-4.235,-4.2273,-4.2253,-4.2219,-4.2188,-4.216,-4.2092,-4.2066,-4.2001,-4.1992,-4.1947,-4.1907,-4.1845,-4.1783,-4.1737,-4.1712,-4.1739,-4.1704,-4.1722,-4.1708,-4.1708,-4.1706,-4.1746,-4.1747,-4.1748,-4.1749,0,-4.243,-4.2401,-4.2365,-4.2319,-4.2289,-4.225,-4.2206,-4.2193,-4.2115,-4.2089,-4.2048,-4.2017,-4.1957,-4.1912,-4.1857,-4.1818,-4.177,-4.1762,-4.1761,-4.1777,-4.18,-4.1785,-4.1698,-4.1759,-4.1758,-4.1757,-4.1757,-4.1756,-4.2489,-4.2476,-4.242,-4.2382,-4.2344,-4.2305,-4.2285,-4.2237,-4.2202,-4.2148,-4.211,-4.2071,-4.2014,-4.1936,-4.1901,-4.1868,-4.1846,-4.1847,-4.1846,-4.1847,-4.1852,-4.1809,-4.1858,-4.1858,-4.1858,-4.1857,-4.1857,0,-4.2552,-4.2514,-4.248,-4.2423,-4.2393,-4.2355,-4.2305,-4.2282,-4.2249,-4.2202,-4.2165,-4.2117,-4.2075,-4.2011,-4.1963,-4.195,-4.1926,-4.1939,-4.1937,-4.1928,-4.1876,-4.1879,-4.1959,-4.1959,-4.1959,-4.1959,-4.1959,-4.1958,-4.2581,-4.2557,-4.2522,-4.2478,-4.2439,-4.2401,-4.2376,-4.234,-4.2302,-4.2253,-4.2217,-4.2178,-4.2123,-4.2071,-4.203,-4.2012,-4.1996,-4.2015,-4.1991,-4.1942,-4.1932,-4.1923,-4.1926,-4.2013,-4.2014,-4.2045,-4.2045,-4.2046]},{"header":{"parameterUnit":"m.s-1","parameterCategory":1,"la1":30.2991,"la2":30.254,"lo1":-89.0895,"lo2":-89.0444,"dy":0.0017,"dx":0.0017,"nx":28,"ny":28,"refTime":"2023-10-05T03:00:00:Z","depth":0,"parameterNumber":3,"parameterNumberName":"V-component_of_WINDS"},"data":[0,0,0,0,0,0,0,0,0,0,0,0,0,0,0,0,0,0,0,0,0,0,0,0,0,0,0,0,0,0,0,0,0,0,0,0,0,0,0,0,0,0,0,0,0,0,0,0,0,0,0,0,0,0,0,0,0,0,3.0477,3.0477,0,3.0477,3.0477,3.0477,3.0496,3.0497,3.0497,3.0498,3.0496,3.0495,3.0495,0,0,0,0,0,0,0,0,0,0,0,0,0,3.0496,3.0495,3.0477,3.0477,3.0477,3.0477,3.0477,3.0477,3.0496,3.0497,3.0498,3.0498,3.0496,3.0495,3.0495,0,0,0,0,0,0,0,0,0,0,0,0,0,3.0491,3.0495,3.0477,3.0487,3.0488,3.0477,3.0477,3.0477,3.0496,3.0497,3.0498,3.0498,3.0496,3.0496,3.0495,3.0474,0,0,3.0492,3.0492,0,0,0,0,0,0,0,0,3.0491,3.049,3.0486,3.0486,3.0487,3.0488,3.0483,3.0476,3.0496,3.0493,3.0498,3.0499,3.0492,3.0492,3.049,3.0474,3.0474,3.0492,3.0492,3.0491,3.0491,0,0,0,0,0,0,0,3.0491,3.049,3.0477,3.0485,3.0486,3.0492,3.0492,3.0481,3.0488,3.0493,3.0495,3.0494,3.0493,3.0491,3.049,3.0474,3.0492,3.0491,3.0491,3.0491,3.0444,3.0443,0,0,0,0,0,0,3.049,3.049,3.0477,3.0477,3.0491,3.0491,3.0491,3.0487,3.0488,3.0489,3.0494,3.0495,3.0492,3.0491,3.049,3.0468,3.0491,3.0491,3.049,3.0445,3.0444,3.0443,0,0,0,0,0,0,3.0491,3.0489,3.0477,3.0484,3.0483,3.0489,3.0485,3.0486,3.0484,3.0489,3.049,3.049,3.0492,3.0491,3.0479,3.0468,3.049,3.0489,3.0446,3.0444,3.0443,3.0422,0,0,0,0,0,0,3.0491,3.0489,3.0481,3.0484,3.0483,3.0465,3.0484,3.0486,3.0483,3.0485,3.0486,3.0487,3.0493,3.048,3.0478,3.0467,3.0489,3.0447,3.0445,3.0444,3.0424,3.042,3.0417,0,0,0,0,0,3.0492,3.0474,3.048,3.0478,3.0472,3.0464,3.0464,3.0472,3.0482,3.0474,3.0478,3.0487,3.047,3.0478,3.0476,3.0465,3.0447,3.0446,3.0444,3.0425,3.0421,3.0418,0,0,0,0,0,0,3.0467,3.0474,3.0481,3.0464,3.0464,3.0468,3.0458,3.0467,3.0463,3.0465,3.0475,3.0475,3.0461,3.0462,3.0472,3.0447,3.046,3.0458,3.0447,3.0443,3.044,3.044,3.0488,0,0,0,0,0,3.046,3.0454,3.046,3.0444,3.0443,3.0451,3.0447,3.0454,3.0454,3.0454,3.0456,3.0456,3.0451,3.0447,3.0442,3.0424,3.0426,3.0416,3.0413,3.0411,3.0408,3.0402,3.0398,3.0437,3.0438,3.0438,0,0,3.0445,3.0448,3.0442,3.0439,3.044,3.0433,3.045,3.0442,3.0437,3.0452,3.0441,3.0443,3.0444,3.0429,3.0423,3.0429,3.0398,3.0408,3.0406,3.0406,3.0399,3.0396,3.0392,3.0436,3.0437,3.0437,0,0,3.0414,3.0415,3.0403,3.0404,3.0405,3.0411,3.0408,3.0412,3.0414,3.0404,3.0416,3.0411,3.0401,3.0401,3.04,3.0374,3.0382,3.0372,3.0355,3.0348,3.0345,3.0342,3.0334,3.0331,3.037,3.037,3.037,0,3.0394,3.0385,3.0395,3.0387,3.0386,3.0401,3.039,3.039,3.0389,3.0389,3.0396,3.0387,3.0388,3.0375,3.0369,3.0367,3.0365,3.0371,3.0345,3.0342,3.034,3.0332,3.0329,3.0368,3.0369,3.0369,3.0369,0,3.0361,3.0355,3.0345,3.0346,3.0344,3.0334,3.0344,3.034,3.0348,3.0353,3.0344,3.0346,3.0343,3.0341,3.0347,3.0329,3.0334,3.0343,3.0357,3.0335,3.0328,3.0325,3.0367,3.0367,3.0367,3.0368,0,0,3.0312,3.0322,3.0318,3.032,3.0325,3.032,3.0312,3.0311,3.0308,3.0308,3.0302,3.0296,3.0305,3.0304,3.0311,3.0305,3.0286,3.0316,3.0316,3.0311,3.0269,3.0262,3.0259,3.0293,3.0292,3.0292,3.0269,0,3.0283,3.027,3.0281,3.0266,3.0261,3.0277,3.027,3.0273,3.0278,3.0275,3.0281,3.0277,3.0289,3.0289,3.0284,3.029,3.0278,3.0291,3.0288,3.0288,3.0287,3.0255,3.0247,3.0225,3.0267,3.0266,3.0266,0,3.0246,3.0247,3.0232,3.0241,3.0239,3.0232,3.0234,3.023,3.0235,3.0239,3.024,3.025,3.0243,3.0257,3.0249,3.0258,3.0258,3.0261,3.026,3.026,3.0275,3.0254,3.0219,3.0216,3.0261,3.0262,3.0262,0,3.0214,3.0211,3.0202,3.0203,3.0212,3.0208,3.0211,3.0216,3.0216,3.0217,3.0217,3.0217,3.0217,3.0218,3.0228,3.0237,3.0219,3.0233,3.0224,3.0223,3.0219,3.0219,3.0183,3.0218,3.0218,3.0218,3.0218,0,3.018,3.0171,3.0188,3.0183,3.0173,3.0187,3.0177,3.0182,3.0187,3.0184,3.0198,3.0194,3.0208,3.0206,3.0214,3.0207,3.0207,3.0211,3.0213,3.021,3.021,3.0209,3.0211,3.0217,3.0217,3.0217,3.0218,0,3.0142,3.0153,3.0145,3.0155,3.0158,3.0151,3.016,3.0156,3.0164,3.0159,3.0159,3.0171,3.017,3.018,3.0181,3.0186,3.0176,3.0181,3.0175,3.0177,3.0167,3.0168,3.013,3.0126,3.0163,3.0162,3.0162,0,3.0119,3.0113,3.0124,3.0123,3.0127,3.0125,3.0125,3.0139,3.0139,3.0145,3.014,3.0141,3.0142,3.014,3.0149,3.015,3.0155,3.0142,3.0155,3.0153,3.0156,3.0157,3.0157,3.0139,3.0138,3.0138,3.0138,0,3.0079,3.0086,3.0086,3.0089,3.009,3.0093,3.0096,3.0095,3.011,3.011,3.011,3.0111,3.0113,3.0114,3.0117,3.0122,3.0133,3.0134,3.0132,3.0128,3.0126,3.0128,3.0168,3.0134,3.0135,3.0135,3.0135,3.0135,3.0049,3.0045,3.0053,3.0053,3.0058,3.0062,3.006,3.0068,3.0069,3.0072,3.0081,3.008,3.0087,3.0093,3.0097,3.0097,3.0103,3.01,3.0099,3.0098,3.0097,3.0126,3.0097,3.0097,3.0097,3.0097,3.0097,0,3.0011,3.0017,3.0018,3.0024,3.0025,3.0037,3.0042,3.0042,3.0042,3.0048,3.0049,3.0051,3.0053,3.0063,3.0066,3.0064,3.0069,3.0064,3.0065,3.0066,3.009,3.0092,3.006,3.006,3.006,3.006,3.006,3.006,2.9991,2.9985,2.9994,2.9991,2.9998,2.9998,3.0001,3.0005,3.001,3.0012,3.0014,3.0021,3.0029,3.0033,3.0036,3.0039,3.004,3.0034,3.0038,3.006,3.0064,3.0067,3.0069,3.0033,3.0033,3.0014,3.0014,3.0014]}]]